Regional Weather Roundup
Issued by NWS

Home | Current Version | Previous Version | Text Only | Print | Product List | Glossary On
Versions: 1 2 3 4 5 6 7 8 9 10 11 12 13 14 15 16 17 18 19 20 21 22 23 24 25 26 27 28 29 30 31 32 33 34 35 36 37 38 39 40 41 42 43 44 45 46 47 48 49 50
000
ASUS46 KSTO 210115
RWRCA

NORTHERN AND CENTRAL CA REGIONAL WEATHER ROUNDUP
NATIONAL WEATHER SERVICE SACRAMENTO CA
500 PM PST MON FEB 20 2017

NOTE: FAIR INDICATES FEW OR NO CLOUDS BELOW 12,000 FEET WITH NO
SIGNIFICANT WEATHER AND/OR OBSTRUCTIONS TO VISIBILITY.

CAZ001-003-210200-
NORTHWEST AREA

CITY           SKY/WX    TMP DP  RH WIND       PRES   REMARKS
CRESCENT CITY  RAIN      50  47  89 E6        29.69S FOG
UKIAH          LGT RAIN  53  51  93 SE13G20   29.77F
$$

CAZ006-505>513-210200-
BAY AREA

CITY           SKY/WX    TMP DP  RH WIND       PRES   REMARKS
SANTA ROSA     RAIN      54  53  97 SE14      29.82F FOG
SAN RAFAEL     N/A       56  MM  MM MISG
NAPA           RAIN      57  53  86 SE7       29.89S FOG
CONCORD        RAIN      55  54  96 S8        29.90F FOG
OAKLAND CITY   N/A      MM  MM  MM MISG
OAKLAND        HVY RAIN  56  56 100 SE3       29.91S FOG
SAN FRAN CITY  N/A       55  MM 100 MISG
SAN FRAN ARPT  HVY RAIN  55  53  93 SE6       29.91R VSB 1
LIVERMORE      RAIN      53  51  93 NE8       29.89F FOG
HAYWARD        HVY RAIN  55  51  86 CALM      29.90F FOG
REDWOOD CITY   N/A       57  MM  99 MISG
MOFFETT ARPT   RAIN      59  58  96 S12G20    29.89F FOG
SAN JOSE ARPT  RAIN      61  55  81 SE18G36   29.89F
$$
CAZ034-037-514>518-210200-
CENTRAL COAST

CITY           SKY/WX    TMP DP  RH WIND       PRES   REMARKS
WATSONVILLE    LGT RAIN  60  56  86 S15       29.95S
SALINAS        CLOUDY    66  50  56 S8        29.94R
MONTEREY       LGT RAIN  63  53  70 SE12G31   29.94R
SAN LUIS OBISP CLOUDY    63  55  75 SE13      30.14F
SANTA MARIA    CLOUDY    60  56  86 SE10      30.16F
$$
CAZ015-016-210200-
NORTHERN SACRAMENTO VALLEY

CITY           SKY/WX    TMP DP  RH WIND       PRES   REMARKS
REDDING        LGT RAIN  53  50  89 S25G41    29.74R
RED BLUFF      LGT RAIN  54  51  90 S23G36    29.78R
OROVILLE       LGT RAIN  54  51  90 SE18G31   29.86F
$$
CAZ016>018-210200-
SOUTHERN SACRAMENTO VALLEY

CITY           SKY/WX    TMP DP  RH WIND       PRES   REMARKS
AUBURN         CLOUDY    50  48  93 SE9       29.91F
BEALE AFB      LGT RAIN  54  52  94 SE20      29.88S FOG
LINCOLN        CLOUDY    54  52  94 SE17      29.90R
MARYSVILLE     RAIN      55  53  93 SE15      29.89F FOG
SAC INTL ARPT  RAIN      55  54  96 S15G22    29.91R FOG
MATHER AIRPORT MOCLDY    54  54 100 SE8       29.93F
DOWNTOWN SAC   N/A       55  MM  MM MISG
SAC EXEC ARPT  RAIN      54  54 100 SE13G20   29.93S FOG
VACAVILLE      LGT RAIN  54  54 100 S13       29.90F FOG
TRAVIS AFB     LGT RAIN  54  52  94 SE12      29.89R FOG
$$
CAZ019>021-210200-
SAN JOAQUIN VALLEY

CITY           SKY/WX    TMP DP  RH WIND       PRES   REMARKS
STOCKTON       LGT RAIN  56  55  97 E10       29.90F
MODESTO        CLOUDY    65  51  60 SE17G30   29.91F
MERCED         CLOUDY    64  53  67 SE22G35   29.99R
LEMOORE        PTCLDY    62  53  72 S22G31    30.09F
FRESNO         MOCLDY    61  51  70 SE15      30.13R
HANFORD        CLOUDY    63  55  75 SE14G20   30.13R
PORTERVILLE    CLOUDY    60  55  83 E10       30.17R
BAKERSFIELD    MOCLDY    67  52  58 NE13      30.12F
$$
CAZ011-012-071-210200-
NORTHERN MOUNTAINS

CITY           SKY/WX    TMP DP  RH WIND       PRES   REMARKS
YREKA          LGT RAIN  47  42  83 SE6       29.66F
MOUNT SHASTA   RAIN      42  40  92 SE5       29.69S FOG
ALTURAS        LGT RAIN  39  36  89 S20G26    29.75F WCI  29
$$
CAZ011-012-071-210200-
SIERRA NEVADA MTNS

CITY           SKY/WX    TMP DP  RH WIND       PRES   REMARKS
BLUE CANYON    RAIN      34  34 100 S14G21    29.90F VSB 1/4 WCI  25
TAHOE VLY ARPT RAIN      36  33  89 S12G17    29.89R FOG     WCI  28
MAMMOTH LAKES  LGT SNOW  33  33 100 E13G29    30.08S WCI  23
$$




USA.gov is the U.S. government's official web portal to all federal, state and local government web resources and services.